Regional Weather Roundup
Issued by NWS Bismarck, ND

Home | Current Version | Previous Version | Text Only | Print | Product List | Glossary On
Versions: 1 2 3 4 5 6 7 8 9 10 11 12 13 14 15 16 17 18 19 20 21 22 23 24 25 26 27 28 29 30 31 32 33 34 35 36 37 38 39 40 41 42 43 44 45 46 47 48 49 50
000
ASUS43 KBIS 050710
RWRBIS

NWR BROADCAST TEXT
NATIONAL WEATHER SERVICE BISMARCK ND
200 AM CDT TUE MAY 05 2015

NOTE: "FAIR" INDICATES FEW OR NO CLOUDS BELOW 12,000 FEET WITH NO
SIGNIFICANT WEATHER AND/OR OBSTRUCTIONS TO VISIBILITY.


CITY           SKY/WX    TMP DP  RH WIND       PRES   REMARKS
WILLISTON      CLEAR     53  30  41 S10G20    30.00F
MINOT          CLOUDY    54  32  43 SE7       30.08F
MINOT AFB      MOCLDY    53  34  49 S7        30.07F
BISMARCK       CLOUDY    53  31  42 SE3       30.12S
DICKINSON      CLEAR     43  29  57 S10       30.04S
GARRISON         N/A     51  33  50 SE3       30.09F
HETTINGER ARPT CLOUDY    50  27  40 SE10      30.07F
JAMESTOWN      CLEAR     47  26  44 S7        30.16S
BEACH          FAIR      45  28  53 SE17G23   30.01F
CARRINGTON     FAIR      45  28  53 S12       30.16S HAZE
CROSBY         FAIR      50  32  50 S15G24    30.01S
HARVEY         PTSUNNY   54  27  35 S10       30.13S
HAZEN          CLOUDY    48  32  53 E8        30.09F
LINTON         CLOUDY    55  32  41 SE10      30.12S
MANDAN         CLOUDY    52  28  40 SE6       30.12S
OAKES            N/A     45  32  61 E13       30.17S
STANLEY        FAIR      43  36  75 S9        30.07F
WATFORD CITY   FAIR      52  27  37 SE14      30.01F
$$

CITY           SKY/WX    TMP DP  RH WIND       PRES   REMARKS
GRAND FORKS    CLEAR     45  26  47 SE6       30.17S
GRAND FORKS AF CLEAR     45  25  45 S7        30.17S
DEVILS LAKE    CLEAR     50  32  50 S8        30.14F
FARGO          CLEAR     50  27  40 SE6       30.19R
CANDO          FAIR      43  32  65 S9        30.14S
CAVALIER       FAIR      39  30  70 S8        30.15S
GRAFTON        FAIR      41  27  56 S9        30.18R
GWINNER        SUNNY     46  32  57 S5        30.19S
LANGDON        FAIR      45  25  45 S15       30.15F
WALHALLA       FAIR      48  27  43 SW7       30.14F
$$

CITY           SKY/WX    TMP DP  RH WIND       PRES   REMARKS
ABERDEEN       PTCLDY    50  32  50 E6        30.15S
MOBRIDGE       CLOUDY    59  27  29 SE13      30.08F
BUFFALO          N/A     45  29  53 SE14      29.98F
RAPID CITY     MOCLDY    46  36  68 S6        30.07F
GLASGOW        CLEAR     50  35  56 E12       29.87S
SIDNEY         CLEAR     46  30  53 S6        30.00S
WOLF POINT     CLEAR     53  35  50 SE7       29.92F
GLENDIVE       CLEAR     50  30  46 S12       29.98S
MILES CITY     CLEAR     53  37  54 SE17      29.91F
BAKER          CLEAR     46  32  58 SE17      30.00F
$$

CITY           SKY/WX    TMP DP  RH WIND       PRES   REMARKS
BILLINGS       PTCLDY    55  39  54 CALM      29.85S
GREAT FALLS    PTCLDY    50  27  40 SW12      29.79S
REGINA         MOCLDY    54  39  58 SE21G31   29.91F
ESTEVAN        CLEAR     48  36  61 SE12      30.02F
$$



USA.gov is the U.S. government's official web portal to all federal, state and local government web resources and services.